Location: Saint Louis
(38.6272°N, 90.1978°W)
Time: 02:30:18
(UTC-06:00)

Hubble Space Telescope - Visible Passes

Search period start: 28 November 2014 00:00
Search period end: 08 December 2014 00:00
Orbit: 546 x 549 km, 28.5° (Epoch: 27 November)

Date Brightness Start Highest point End Pass type
(mag) Time Alt. Az. Time Alt. Az. Time Alt. Az.
28 Nov 3.1 04:31:36 18° SSE 04:31:36 18° SSE 04:33:28 10° SE visible
28 Nov 3.2 06:09:27 10° SW 06:11:08 12° SSW 06:12:48 10° S visible
29 Nov 3.3 04:24:32 15° SSE 04:24:32 15° SSE 04:25:42 10° SE visible
30 Nov 3.6 04:17:28 11° SSE 04:17:28 11° SSE 04:17:51 10° SSE visible
